GW1347 Weather Reports


Display with metric or nautical units.
time (UTC)temp
F
wind
direction
speed
MPH
gust
MPH
rain 1hr
in
rain 24hr
in
rain mn
in
humidity
%
barometer
mb
20260507025443 48 300 0.0 0.0 0.00 0.00 0.00 78 1015.6
20260507024430 49 300 0.0 0.0 0.00 0.00 0.00 76 1015.4
20260507023420 49 300 0.0 0.0 0.00 0.00 0.00 75 1015.4
20260507022438 49 300 0.0 0.0 0.00 0.00 0.00 74 1015.4
20260507020323 51 300 0.0 0.0 0.00 0.00 0.00 69 1015.4
20260507015253 51 300 0.0 0.0 0.00 0.00 0.00 70 1015.2
20260507014245 52 300 0.0 0.0 0.00 0.00 0.00 68 1015.1
20260507013223 53 300 0.0 0.0 0.00 0.00 0.00 65 1014.9
20260507012200 53 300 0.0 0.0 0.00 0.00 0.00 65 1015.0
20260507011130 54 300 0.0 0.0 0.00 0.00 0.00 58 1014.9
20260507005126 55 317 0.0 0.0 0.00 0.00 0.00 58 1014.7
20260507004105 55 323 0.0 0.0 0.00 0.00 0.00 56 1014.6
20260507000804 58 246 1.0 6.0 0.00 0.00 0.00 51 1014.4
20260506234548 61 287 1.0 6.0 0.00 0.00 0.00 53 1014.1
20260506233544 59 293 1.0 6.0 0.00 0.00 0.00 52 1014.1
20260506231429 60 340 1.0 5.0 0.00 0.00 0.00 52 1014.1
20260506230425 59 311 2.0 6.0 0.00 0.00 0.00 50 1014.1
20260506225426 60 234 1.0 10.0 0.00 0.00 0.00 48 1014.0
20260506224354 60 199 2.0 10.0 0.00 0.00 0.00 47 1014.0
20260506223419 60 30 2.0 7.0 0.00 0.00 0.00 48 1014.2
20260506222410 61 326 1.0 8.0 0.00 0.00 0.00 47 1014.2
20260506221432 61 269 2.0 9.0 0.00 0.00 0.00 45 1014.1
20260506220430 61 301 2.0 9.0 0.00 0.00 0.00 45 1014.2
20260506215422 61 261 2.0 5.0 0.00 0.00 0.00 44 1014.3
20260506214349 61 265 1.0 7.0 0.00 0.00 0.00 43 1014.1
20260506213327 62 341 1.0 8.0 0.00 0.00 0.00 44 1014.2
20260506212341 62 293 2.0 8.0 0.00 0.00 0.00 42 1014.1
20260506211345 64 12 1.0 6.0 0.00 0.00 0.00 38 1014.1
20260506210333 62 274 2.0 6.0 0.00 0.00 0.00 41 1013.9
20260506205346 64 298 1.0 6.0 0.00 0.00 0.00 39 1013.9
20260506204319 63 0 1.0 5.0 0.00 0.00 0.00 41 1014.0
20260506202125 62 262 2.0 11.0 0.00 0.00 0.00 44 1014.0
20260506195935 61 227 1.0 5.0 0.00 0.00 0.00 49 1014.0
20260506194957 61 326 1.0 4.0 0.00 0.00 0.00 46 1014.0
20260506194021 61 284 1.0 4.0 0.00 0.00 0.00 51 1014.1
20260506193010 60 30 1.0 4.0 0.00 0.00 0.00 52 1014.1
20260506192030 60 347 1.0 8.0 0.00 0.00 0.00 51 1014.1
20260506191003 61 341 1.0 8.0 0.00 0.00 0.00 46 1014.2
20260506185958 60 130 1.0 5.0 0.00 0.00 0.00 53 1014.1
20260506184944 59 335 3.0 5.0 0.00 0.00 0.00 53 1014.0
20260506183919 60 13 0.0 4.0 0.00 0.00 0.00 50 1014.1
20260506182940 60 0 1.0 1.0 0.00 0.00 0.00 52 1014.0
20260506181954 59 332 1.0 5.0 0.00 0.00 0.00 49 1013.9
20260506175809 60 243 0.0 4.0 0.00 0.00 0.00 54 1014.0
20260506174743 59 255 0.0 2.0 0.00 0.00 0.00 53 1014.2
20260506173735 60 293 0.0 3.0 0.00 0.00 0.00 53 1014.3
20260506172738 59 238 1.0 3.0 0.00 0.00 0.00 55 1014.3
20260506171714 59 224 1.0 3.0 0.00 0.00 0.00 56 1014.4
20260506170723 59 322 2.0 6.0 0.00 0.00 0.00 53 1014.5
20260506164544 59 344 1.0 5.0 0.00 0.00 0.00 54 1014.5
20260506163511 58 313 1.0 6.0 0.00 0.00 0.00 52 1014.4
20260506162515 60 346 1.0 1.0 0.00 0.00 0.00 57 1014.2
20260506160342 59 312 0.0 3.0 0.00 0.00 0.00 55 1014.4
20260506155342 58 1 1.0 6.0 0.00 0.00 0.00 59 1014.4
20260506154355 57 1 1.0 6.0 0.00 0.00 0.00 68 1014.2
20260506153403 55 246 1.0 5.0 0.00 0.00 0.00 68 1014.2
20260506152420 55 216 1.0 3.0 0.00 0.00 0.00 66 1014.3
20260506151407 55 238 0.0 3.0 0.00 0.00 0.00 68 1014.5
20260506150421 55 146 0.0 3.0 0.00 0.00 0.00 70 1014.5
20260506145430 56 266 0.0 3.0 0.00 0.00 0.00 70 1014.5
20260506144444 54 354 0.0 3.0 0.00 0.00 0.00 73 1014.3
20260506143419 53 329 0.0 1.0 0.00 0.00 0.00 73 1013.9
20260506142415 52 337 1.0 4.0 0.00 0.00 0.00 71 1013.8
20260506141420 52 353 1.0 7.0 0.00 0.00 0.00 73 1013.9
20260506140409 51 340 2.0 7.0 0.00 0.00 0.00 75 1013.5
20260506134209 51 336 2.0 4.0 0.00 0.00 0.00 75 1013.0
20260506133232 50 338 2.0 6.0 0.00 0.00 0.00 78 1013.1
20260506132226 50 347 0.0 6.0 0.00 0.00 0.00 77 1013.2
20260506130108 49 333 0.0 4.0 0.00 0.00 0.00 81 1013.2
20260506125037 49 348 0.0 1.0 0.00 0.00 0.00 87 1013.3
20260506121804 47 356 0.0 0.0 0.00 0.00 0.00 91 1013.4
20260506120818 46 356 0.0 0.0 0.00 0.00 0.00 91 1013.0
20260506114659 46 356 0.0 0.0 0.00 0.00 0.00 91 1012.5
20260506111522 45 340 0.0 0.0 0.00 0.00 0.00 89 1011.7
20260506110456 45 352 0.0 0.0 0.00 0.00 0.00 89 1011.4
20260506105510 45 336 0.0 3.0 0.00 0.00 0.00 89 1011.1
20260506104533 45 266 0.0 0.0 0.00 0.00 0.00 89 1011.1
20260506101222 45 20 0.0 3.0 0.00 0.00 0.00 88 1010.9
20260506100214 44 338 0.0 0.0 0.00 0.00 0.00 89 1011.1
20260506095224 44 352 1.0 1.0 0.00 0.00 0.00 89 1011.3
20260506094240 44 304 1.0 5.0 0.00 0.00 0.00 89 1011.0
20260506093220 44 299 1.0 5.0 0.00 0.00 0.00 89 1010.5
20260506092240 45 325 1.0 4.0 0.00 0.00 0.00 88 1010.2
20260506091243 45 340 2.0 5.0 0.00 0.00 0.00 88 1010.3
20260506090234 45 340 2.0 5.0 0.00 0.00 0.00 88 1010.6
20260506085249 45 2 1.0 6.0 0.00 0.00 0.00 89 1010.3
20260506084247 45 14 1.0 7.0 0.00 0.00 0.00 91 1010.8
20260506080940 45 357 1.0 5.0 0.00 0.00 0.00 91 1009.5
20260506072959 46 336 3.0 8.0 0.00 0.00 0.00 90 1010.0
20260506071940 46 349 3.0 7.0 0.00 0.00 0.00 90 1009.4
20260506070955 46 6 4.0 10.0 0.00 0.00 0.00 90 1009.7
20260506061927 48 13 6.0 14.0 0.00 0.00 0.00 93 1009.9
20260506060924 48 9 5.0 14.0 0.00 0.00 0.00 93 1009.8
20260506050735 49 3 3.0 9.0 0.00 0.00 0.00 94 1009.1
20260506044724 49 335 3.0 12.0 0.00 0.00 0.00 94 1008.8
20260506043742 49 42 4.0 12.0 0.00 0.00 0.00 94 1008.3
20260506042739 49 270 4.0 11.0 0.00 0.00 0.00 95 1008.3
20260506041715 49 359 4.0 10.0 0.00 0.00 0.00 94 1008.5
20260506040706 49 316 2.0 9.0 0.00 0.00 0.00 95 1008.7
20260506035647 49 11 3.0 9.0 0.00 0.00 0.00 95 1008.9
20260506034631 49 321 3.0 8.0 0.00 0.00 0.00 94 1008.6
20260506033636 49 323 1.0 8.0 0.00 0.00 0.00 95 1008.8
20260506032609 49 327 3.0 8.0 0.00 0.00 0.00 94 1008.2
20260506031616 49 347 3.0 11.0 0.00 0.00 0.00 94 1008.0
20260506030549 49 331 4.0 11.0 0.00 0.00 0.00 94 1008.3